This demonstration page uses our WeatherBlox Daily Observations layout. Learn more.

Left ArrowRight Arrow

Hourly Observations for June 29, 2022

Temp ( °F °C ) Dew Point ( °F °C ) Humidity (%) Winds ( mph kmh ) Pressure ( in mb ) Visibility ( mi km ) Precip ( " mm )
12:53 am 00:53 Clear 72 22.2 56 13.3 57 57 SSW 8 13 30.08 1019 10 16 0.00 0.00
1:53 am 01:53 Clear 71 21.7 56 13.3 59 59 S 9 15 30.07 1018 10 16 0.00 0.00
2:53 am 02:53 Clear 69 20.6 56 13.3 63 63 SSW 8 13 30.07 1018 10 16 0.00 0.00
3:53 am 03:53 Clear 67 19.4 56 13.3 68 68 SSW 8 13 30.07 1018 10 16 0.00 0.00
4:53 am 04:53 Clear 67 19.4 55 12.8 66 66 SSW 8 13 30.08 1019 10 16 0.00 0.00
5:53 am 05:53 Clear 67 19.4 54 12.2 63 63 SSW 8 13 30.07 1018 10 16 0.00 0.00
6:53 am 06:53 Sunny 68 20 53 11.7 59 59 SSW 9 15 30.07 1018 10 16 0.00 0.00
7:53 am 07:53 Sunny 71 21.7 54 12.2 55 55 S 9 15 30.07 1018 10 16 0.00 0.00
8:53 am 08:53 Sunny 74 23.3 55 12.8 52 52 SSW 14 22 30.07 1018 10 16 0.00 0.00
9:53 am 09:53 Sunny 79 26.1 58 14.4 49 49 SSW 15 24 30.07 1018 10 16 0.00 0.00
10:53 am 10:53 Sunny 83 28.3 60 15.6 46 46 SSW 17 28 30.06 1018 10 16 0.00 0.00
11:53 am 11:53 Sunny 88 31.1 61 16.1 40 40 SSW 13 20 30.04 1017 10 16 0.00 0.00
12:53 pm 12:53 Sunny 91 32.8 54 12.2 28 28 SSW 22 35 30.03 1017 10 16 0.00 0.00
1:53 pm 13:53 Sunny 93 33.9 54 12.2 27 27 S 20 31 30.00 1016 10 16 0.00 0.00
2:53 pm 14:53 Sunny 94 34.4 50 10 22 22 S 21 33 29.98 1015 10 16 0.00 0.00
3:53 pm 15:53 Sunny 95 35 47 8.3 19 19 S 20 31 29.97 1015 10 16 0.00 0.00
4:53 pm 16:53 Sunny 94 34.4 45 7.2 18 18 S 21 33 29.95 1014 10 16 0.00 0.00
5:53 pm 17:53 Sunny 92 33.3 47 8.3 21 21 S 21 33 29.94 1014 10 16 0.00 0.00
6:53 pm 18:53 Sunny 91 32.8 49 9.4 24 24 S 21 33 29.93 1014 10 16 0.00 0.00
7:53 pm 19:53 Sunny 87 30.6 50 10 28 28 S 17 28 29.91 1013 10 16 0.00 0.00
8:53 pm 20:53 Sunny 84 28.9 52 11.1 33 33 S 14 22 29.92 1013 10 16 0.00 0.00
9:53 pm 21:53 Clear 81 27.2 53 11.7 38 38 S 14 22 29.92 1013 10 16 0.00 0.00
10:53 pm 22:53 Clear 80 26.7 54 12.2 41 41 S 14 22 29.93 1013 10 16 0.00 0.00
11:53 pm 23:53 Clear 79 26.1 53 11.7 41 41 S 13 20 29.92 1013 10 16 0.00 0.00

Powered by AerisWeather